Tracking 29892 objects as of 21-Nov-2024
HD Live streaming from Space Station
objects crossing your sky now

FALCON 9 R/B

Track FALCON 9 R/B now!
10-day predictions


NORAD ID: 40618
Int'l Code: 2015-023B
Perigee: 210.5 km
Apogee: 20,690.1 km
Inclination: 25.3 °
Period: 361.9 minutes
Semi major axis: 16821 km
RCS: Unknown
Launch date: April 27, 2015
Source: United States (US)
Launch site: AIR FORCE EASTERN TEST RANGE (AFETR)

Note: This is a ROCKET BODY
Your satellite tracking list
Your tracking list is empty




NASA's NSSDC Master Catalog

Two Line Element Set (TLE):
1 40618U 15023B   24326.13256456  .00050595  00000-0  18999-2 0  9991
2 40618  25.2649 308.8023 6087419 149.1001 268.3565  3.97935941105117
Source of the keplerian elements: AFSPC